When you browse on this site, cookies collect data to enhance your experience and personalize the content and advertising you see.
Visit our Privacy Policy to learn more. By continuing to use the site, you agree to this use of cookies and data.
  • In Netherlands
  • List of Countries
  • For 7 days
  • Water Temperature
  • Satellite Maps
  • Weather Map
  • Weather Widgets
  • user-avatar
    Login

    Hourly Weather Konstantyna

    Today, 24 April, Wednesday

    Time Temperature Precipitation Wind Pressure Humidity
    00:00 +13°C° 0 mm 3 mps 704 mmHg 50%
    01:00 +14°C° 0 mm 2 mps 704 mmHg 51%
    02:00 +13°C° 0 mm 2 mps 704 mmHg 53%
    03:00 +13°C° 0 mm 1 mps 704 mmHg 54%
    04:00 +13°C° 0 mm 1 mps 704 mmHg 60%
    05:00 +13°C° 0 mm 1 mps 705 mmHg 66%
    06:00 +13°C° 0 mm 1 mps 705 mmHg 71%
    07:00 +15°C° 0 mm 2 mps 706 mmHg 70%
    08:00 +16°C° 0 mm 2 mps 707 mmHg 69%
    09:00 +17°C° 0 mm 3 mps 708 mmHg 68%
    10:00 +17°C° 0 mm 3 mps 708 mmHg 69%
    11:00 +18°C° 0 mm 4 mps 708 mmHg 71%
    12:00 +18°C° 0 mm 4 mps 708 mmHg 72%
    13:00 +18°C° 0 mm 4 mps 708 mmHg 72%
    14:00 +18°C° 0 mm 4 mps 708 mmHg 71%
    15:00 +18°C° 0 mm 4 mps 708 mmHg 71%
    16:00 +17°C° 0 mm 3 mps 708 mmHg 76%
    17:00 +16°C° 0 mm 3 mps 707 mmHg 81%
    18:00 +14°C° 0 mm 3 mps 707 mmHg 86%
    19:00 +14°C° 0 mm 2 mps 708 mmHg 89%
    20:00 +13°C° 0 mm 1 mps 708 mmHg 92%
    21:00 +12°C° 0 mm 1 mps 709 mmHg 95%
    22:00 +12°C° 0.1 mm 1 mps 709 mmHg 95%
    23:00 +12°C° 0.1 mm 1 mps 709 mmHg 95%

    Tomorrow, 25 April, Thursday

    Time Temperature Precipitation Wind Pressure Humidity
    00:00 +12°C° 0.1 mm 1 mps 709 mmHg 95%
    01:00 +12°C° 0 mm 1 mps 708 mmHg 94%
    02:00 +12°C° 0 mm 1 mps 708 mmHg 94%
    03:00 +12°C° 0 mm 1 mps 708 mmHg 93%
    04:00 +13°C° 0 mm 1 mps 708 mmHg 91%
    05:00 +14°C° 0 mm 1 mps 709 mmHg 89%
    06:00 +15°C° 0 mm 1 mps 709 mmHg 86%
    07:00 +18°C° 0 mm 1 mps 710 mmHg 77%
    08:00 +20°C° 0 mm 1 mps 710 mmHg 67%
    09:00 +23°C° 0 mm 1 mps 711 mmHg 58%
    10:00 +24°C° 0 mm 1 mps 711 mmHg 54%
    11:00 +25°C° 0 mm 1 mps 711 mmHg 51%
    12:00 +26°C° 0 mm 2 mps 711 mmHg 47%
    13:00 +26°C° 0 mm 2 mps 711 mmHg 49%
    14:00 +27°C° 0 mm 3 mps 711 mmHg 50%
    15:00 +27°C° 0 mm 3 mps 710 mmHg 52%
    16:00 +25°C° 0.2 mm 3 mps 710 mmHg 65%
    17:00 +22°C° 0.2 mm 3 mps 710 mmHg 78%
    18:00 +20°C° 0.2 mm 2 mps 709 mmHg 91%
    19:00 +18°C° 0.1 mm 2 mps 710 mmHg 93%
    20:00 +18°C° 0.1 mm 1 mps 710 mmHg 94%
    21:00 +16°C° 0.1 mm 1 mps 710 mmHg 96%
    22:00 +16°C° 0 mm 1 mps 710 mmHg 96%
    23:00 +15°C° 0 mm 1 mps 710 mmHg 96%

    Day after tomorrow, 26 April, Friday

    Time Temperature Precipitation Wind Pressure Humidity
    00:00 +15°C° 0 mm 1 mps 710 mmHg 95%
    01:00 +15°C° 0 mm 1 mps 710 mmHg 96%
    02:00 +15°C° 0 mm 1 mps 711 mmHg 96%
    03:00 +14°C° 0 mm 2 mps 711 mmHg 96%
    04:00 +15°C° 0 mm 1 mps 711 mmHg 94%
    05:00 +15°C° 0 mm 1 mps 712 mmHg 91%
    06:00 +15°C° 0 mm 1 mps 712 mmHg 89%
    07:00 +16°C° 0 mm 2 mps 713 mmHg 77%
    08:00 +18°C° 0 mm 3 mps 714 mmHg 66%
    09:00 +19°C° 0 mm 3 mps 714 mmHg 55%
    10:00 +20°C° 0 mm 4 mps 715 mmHg 56%
    11:00 +20°C° 0 mm 4 mps 715 mmHg 56%
    12:00 +21°C° 0 mm 4 mps 715 mmHg 57%
    13:00 +20°C° 0 mm 4 mps 714 mmHg 61%
    14:00 +19°C° 0 mm 4 mps 714 mmHg 64%
    15:00 +19°C° 0 mm 5 mps 714 mmHg 68%
    16:00 +17°C° 0 mm 4 mps 713 mmHg 72%
    17:00 +15°C° 0 mm 4 mps 713 mmHg 77%
    18:00 +14°C° 0 mm 3 mps 713 mmHg 81%
    19:00 +13°C° 0 mm 3 mps 714 mmHg 83%
    20:00 +13°C° 0 mm 2 mps 714 mmHg 85%
    21:00 +12°C° 0 mm 2 mps 715 mmHg 87%
    22:00 +12°C° 0 mm 2 mps 715 mmHg 86%
    23:00 +12°C° 0 mm 1 mps 715 mmHg 84%

    27 April, Saturday

    Time Temperature Precipitation Wind Pressure Humidity
    00:00 +12°C° 0 mm 1 mps 715 mmHg 83%
    01:00 +11°C° 0 mm 1 mps 715 mmHg 85%
    02:00 +10°C° 0 mm 1 mps 714 mmHg 87%
    03:00 +9°C° 0 mm 1 mps 714 mmHg 89%
    04:00 +9°C° 0 mm 0 mps 714 mmHg 86%
    05:00 +9°C° 0 mm 0 mps 714 mmHg 82%
    06:00 +10°C° 0 mm 0 mps 714 mmHg 78%
    07:00 +12°C° 0 mm 1 mps 715 mmHg 67%
    08:00 +14°C° 0 mm 1 mps 715 mmHg 56%
    09:00 +16°C° 0 mm 2 mps 716 mmHg 45%
    10:00 +17°C° 0 mm 2 mps 716 mmHg 43%
    11:00 +18°C° 0 mm 3 mps 715 mmHg 42%
    12:00 +19°C° 0 mm 3 mps 715 mmHg 40%
    13:00 +19°C° 0 mm 3 mps 715 mmHg 43%
    14:00 +19°C° 0 mm 4 mps 715 mmHg 46%
    15:00 +19°C° 0 mm 4 mps 714 mmHg 49%
    16:00 +17°C° 0 mm 3 mps 714 mmHg 58%
    17:00 +16°C° 0 mm 3 mps 714 mmHg 68%
    18:00 +14°C° 0 mm 2 mps 714 mmHg 77%
    19:00 +12°C° 0 mm 2 mps 714 mmHg 82%
    20:00 +11°C° 0 mm 1 mps 714 mmHg 86%
    21:00 +10°C° 0 mm 1 mps 715 mmHg 91%
    22:00 +8°C° 0 mm 0 mps 714 mmHg 91%
    23:00 +8°C° 0 mm 0 mps 714 mmHg 90%

    28 April, Sunday

    Time Temperature Precipitation Wind Pressure Humidity
    00:00 +7°C° 0 mm 0 mps 713 mmHg 90%
    01:00 +7°C° 0 mm 0 mps 713 mmHg 88%
    02:00 +7°C° 0 mm 0 mps 713 mmHg 86%
    03:00 +7°C° 0 mm 0 mps 712 mmHg 83%
    04:00 +8°C° 0 mm 0 mps 712 mmHg 78%
    05:00 +10°C° 0 mm 1 mps 713 mmHg 73%
    06:00 +11°C° 0 mm 1 mps 713 mmHg 67%
    07:00 +13°C° 0 mm 1 mps 713 mmHg 59%
    08:00 +15°C° 0 mm 1 mps 713 mmHg 50%
    09:00 +18°C° 0 mm 1 mps 713 mmHg 41%
    10:00 +18°C° 0 mm 2 mps 713 mmHg 39%
    11:00 +20°C° 0 mm 2 mps 713 mmHg 38%
    12:00 +21°C° 0 mm 3 mps 713 mmHg 36%
    13:00 +21°C° 0 mm 4 mps 712 mmHg 40%
    14:00 +20°C° 0 mm 4 mps 712 mmHg 45%
    15:00 +20°C° 0 mm 5 mps 712 mmHg 49%
    16:00 +18°C° 0 mm 4 mps 711 mmHg 58%
    17:00 +16°C° 0 mm 3 mps 711 mmHg 66%
    18:00 +14°C° 0 mm 2 mps 711 mmHg 75%
    19:00 +13°C° 0 mm 2 mps 711 mmHg 80%
    20:00 +11°C° 0 mm 1 mps 711 mmHg 85%
    21:00 +10°C° 0 mm 1 mps 711 mmHg 90%
    22:00 +10°C° 0 mm 1 mps 711 mmHg 90%
    23:00 +9°C° 0 mm 1 mps 711 mmHg 91%

    29 April, Monday

    Time Temperature Precipitation Wind Pressure Humidity
    00:00 +9°C° 0 mm 1 mps 710 mmHg 91%
    01:00 +9°C° 0 mm 1 mps 710 mmHg 91%
    02:00 +8°C° 0 mm 0 mps 710 mmHg 90%
    03:00 +7°C° 0 mm 0 mps 710 mmHg 90%
    04:00 +9°C° 0 mm 1 mps 710 mmHg 87%
    05:00 +10°C° 0 mm 1 mps 710 mmHg 84%
    06:00 +11°C° 0 mm 1 mps 710 mmHg 81%
    07:00 +13°C° 0 mm 1 mps 710 mmHg 74%
    08:00 +15°C° 0 mm 1 mps 710 mmHg 68%
    09:00 +18°C° 0 mm 1 mps 710 mmHg 61%
    10:00 +20°C° 0 mm 1 mps 710 mmHg 56%
    11:00 +21°C° 0 mm 2 mps 710 mmHg 52%
    12:00 +23°C° 0 mm 2 mps 710 mmHg 47%
    13:00 +22°C° 0 mm 3 mps 709 mmHg 50%
    14:00 +22°C° 0 mm 3 mps 709 mmHg 53%
    15:00 +22°C° 0 mm 4 mps 708 mmHg 56%
    16:00 +20°C° 0 mm 3 mps 708 mmHg 65%
    17:00 +18°C° 0 mm 3 mps 708 mmHg 75%
    18:00 +16°C° 0 mm 3 mps 708 mmHg 84%
    19:00 +15°C° 0 mm 2 mps 708 mmHg 87%
    20:00 +14°C° 0 mm 2 mps 708 mmHg 90%
    21:00 +12°C° 0 mm 1 mps 708 mmHg 93%
    22:00 +12°C° 0 mm 1 mps 707 mmHg 93%
    23:00 +12°C° 0 mm 1 mps 707 mmHg 93%
    Show more